Lid_Strength_Index
9 10 10 9 9 9 9 9 11 9 9 7 7 6 5 5 5 5 5 5 5 5 4 5 6 5 5 5 5 6 6 6 6 6 6 6 6 7 6 6 6 5 5 5
11 10 10 10 9 9 9 8 9 8 9 5 5 5 5 5 5 5 5 5 5 4 5 5 5 5 6 6 7 6 7 7 7 7 7 7 7 7 6 6 5 5 5 5
13 11 11 14 10 9 8 8 8 10 7 6 6 6 5 5 5 5 5 4 4 4 5 5 5 6 6 7 7 7 7 7 7 7 7 7 7 7 6 6 5 6 5 4
13 13 18 10 8 8 8 7 6 7 6 6 6 5 5 4 4 4 4 4 4 4 5 5 6 7 6 7 7 7 8 8 8 8 8 7 7 7 6 6 5 6 5 3
16 13 11 10 10 10 10 9 7 7 6 6 6 5 5 4 3 4 3 3 3 4 5 6 7 7 7 8 8 9 9 8 8 8 8 7 7 7 6 6 5 5 4 3
13 18 20 10 8 7 7 10 7 6 6 6 6 9 6 4 3 3 3 3 4 6 7 8 7 8 8 8 9 9 8 8 8 8 8 7 7 6 6 6 5 5 4 3
13 16 11 8 8 6 12 10 6 6 5 6 7 5 4 3 3 3 3 4 6 8 9 8 8 8 9 9 9 8 8 8 8 8 7 7 6 6 6 6 5 4 5 4
13 17 17 7 7 10 7 5 5 5 5 5 5 4 4 4 4 5 6 8 8 9 9 8 8 9 10 10 8 8 8 8 8 8 7 7 6 6 6 5 5 5 5 4
10 9 7 6 5 5 4 5 5 5 4 4 5 5 5 5 6 7 8 9 7 7 9 9 9 9 10 9 8 8 9 8 8 8 7 7 6 6 6 5 5 6 6 5
9 7 7 6 5 4 4 4 4 4 4 4 4 4 5 7 8 8 9 9 9 9 10 10 10 10 9 9 9 9 9 9 8 7 7 6 6 6 6 5 6 6 6 6
8 6 6 5 5 5 4 4 4 3 4 4 4 5 7 8 8 9 11 10 9 10 10 10 10 9 9 9 9 9 9 8 7 7 7 6 6 6 5 5 5 5 5 5
9 7 6 6 4 4 4 4 4 4 5 5 4 6 7 9 10 11 11 10 10 10 10 10 10 10 9 9 9 9 9 8 7 7 6 6 5 5 6 6 6 5 5 5
7 5 5 4 4 4 5 5 5 5 6 8 8 10 10 10 10 11 10 11 11 11 10 10 10 10 9 9 8 8 8 8 8 8 7 6 5 5 6 5 5 5 5 5
5 5 6 6 7 7 7 7 8 9 9 10 11 10 11 10 10 11 11 10 10 10 10 10 10 10 8 7 7 8 8 9 7 6 6 5 5 5 5 5 5 5 5 5
8 5 6 7 7 8 9 10 11 12 12 12 11 11 10 11 10 10 10 10 10 9 9 9 9 8 7 7 8 7 7 5 5 5 5 5 5 5 5 5 5 5 4 5
8 7 8 9 10 11 11 12 12 12 11 11 10 9 9 9 10 9 9 8 10 10 9 9 9 8 7 6 6 5 4 5 5 5 5 5 5 5 5 5 5 5 5 5
9 11 11 12 12 11 11 10 10 9 9 9 8 9 9 10 10 10 9 9 9 10 9 9 9 6 5 4 4 4 3 3 5 4 5 5 5 5 4 4 5 5 4 3
9 9 9 10 10 10 10 9 9 9 9 9 10 10 10 10 10 9 9 9 10 10 8 7 6 5 4 3 3 3 3 4 4 5 4 4 5 5 4 4 4 4 4 4
9 9 9 9 8 9 9 9 9 9 9 9 9 9 9 9 9 9 9 9 9 8 5 3 5 6 4 4 5 4 4 4 5 5 5 5 5 5 5 4 4 4 4 4
10 9 9 10 10 10 10 9 8 8 7 8 9 9 8 8 7 7 7 7 6 5 4 4 4 3 3 3 5 5 4 5 5 5 5 5 5 5 4 4 4 4 4 4
10 10 10 10 10 9 9 9 9 9 8 9 8 8 8 7 7 7 6 5 4 3 3 4 4 3 2 3 4 3 4 5 5 5 5 5 5 5 5 4 4 4 4 4
9 9 10 9 9 8 8 8 8 9 9 9 8 8 8 7 7 7 6 6 5 5 5 4 4 4 3 5 4 4 4 5 5 4 5 5 5 5 4 4 4 4 4 4
8 8 9 9 9 9 8 9 9 9 10 9 9 9 9 8 7 8 9 6 5 6 5 5 5 5 5 5 4 5 5 5 6 6 6 6 6 5 5 4 4 3 4 3
8 9 10 10 10 10 10 10 10 9 9 9 9 9 9 9 8 7 6 6 6 5 5 5 5 5 6 5 5 6 7 7 7 8 8 8 8 8 7 6 5 4 4 3
10 10 10 10 10 10 11 11 10 10 11 11 10 10 10 9 9 8 7 7 7 7 5 5 6 8 7 7 8 8 8 8 9 10 10 10 9 9 9 8 8 7 6 4
11 11 10 11 11 11 12 12 12 11 12 12 11 11 11 10 9 9 8 8 8 9 9 9 10 10 9 10 10 10 10 10 10 11 11 10 10 10 10 10 9 8 7 6
12 12 11 11 12 12 13 14 13 14 13 13 14 12 12 11 10 10 11 11 11 11 11 11 12 13 12 12 12 11 11 11 12 12 12 12 12 12 11 11 10 9 8 8